Powrót do katalogu

SL-12 R/B(2)

AktywnyMEO
NORAD 22061·ROCKET BODY·🇷🇺 Russia

Wystrzelony Jul 30, 1992 z Baikonur Cosmodrome

Loading…

Następne Przeloty (najbliższe 24 godziny)

TLE

ŚwieżeSource: Space-Track

Epoka: Sep 14, 2026, 06:21 UTC

1 22061U 92047F   26257.26482311 -.00000033  00000-0  00000-0 0  9999
2 22061  64.0602 297.9373 0002857 267.9933  92.5539  2.13332155265801

Śledź SL-12 R/B(2) w czasie rzeczywistym z AllMySat

Download on the App Store